Regional Weather Roundup
Issued by NWS Green Bay, WI

Home | Current Version | Previous Version | Text Only | Print | Product List | Glossary On
Versions: 1 2 3 4 5 6 7 8 9 10 11 12 13 14 15 16 17 18 19 20 21 22 23 24 25 26 27 28 29 30 31 32 33 34 35 36 37 38 39 40 41 42 43 44 45 46 47 48 49 50
000
ASUS43 KGRB 251311
RWRGRB

NORTH-CENTRAL AND NORTHEAST WISCONSIN REGIONAL WEATHER ROUNDUP
NATIONAL WEATHER SERVICE GREEN BAY WI
800 AM CDT THU MAY 25 2017

WIZ005-009-010>012-018-019-251400-
NORTH CENTRAL WISCONSIN

CITY           SKY/WX    TMP DP  RH WIND       PRES   REMARKS
IRONWOOD       SUNNY     52  44  74 E7        29.76S
MANITOWISH WTR SUNNY     52  47  81 NE8       29.74S
ARBOR VITAE    MOSUNNY   52  47  85 CALM      29.74S
EAGLE RIVER    MOSUNNY   52  43  70 NE5       29.74S
LAND O LAKES   PTSUNNY   52  44  76 NE3       29.76S
RHINELANDER    SUNNY     53  46  77 NE6       29.74R
PHILLIPS       MOSUNNY   53  49  87 CALM      29.73S
ANTIGO         SUNNY     52  48  86 N8        29.72S
TOMAHAWK       SUNNY     52  46  80 NE3       29.74S
MERRILL        PTSUNNY   53  48  85 NE3       29.73S
$$

WIZ013-073-251400-
NORTHEAST WISCONSIN

CITY           SKY/WX    TMP DP  RH WIND       PRES   REMARKS
IRON MOUNTAIN  SUNNY     55  45  68 N7        29.71S
MARINETTE      SUNNY     56  49  77 VRB6      29.69R
OCONTO         SUNNY     55  48  77 N7        29.68S
$$

WIZ017-030-035>037-045-251400-
CENTRAL WISCONSIN

CITY           SKY/WX    TMP DP  RH WIND       PRES   REMARKS
MEDFORD        SUNNY     51  48  89 NE8       29.72S
WAUSAU         SUNNY     54  48  80 N6        29.70S
MOSINEE        MOSUNNY   54  52  94 N7        29.72S
MARSHFIELD     PTSUNNY   53  48  83 NE9       29.70F
WISC RAPIDS    SUNNY     56  49  77 NE7       29.71F
STEVENS POINT  MOSUNNY   52  49  90 N5        29.71S
WAUPACA        MOSUNNY   55  52  92 N8        29.69S
SHAWANO        SUNNY     56  49  77 NE7       29.70R
CLINTONVILLE   SUNNY     54  46  76 NE7       29.69S
WAUTOMA        MOSUNNY   55  49  80 N9        29.69S
$$

WIZ038-039-048-051-251400-
FOX VALLEY

CITY           SKY/WX    TMP DP  RH WIND       PRES   REMARKS
NWS GREEN BAY  SUNNY     55  51  86 N12       29.67S
APPLETON       PTSUNNY   54  50  87 N13       29.67R
OSHKOSH        CLOUDY    53  49  86 N9        29.67R
FOND DU LAC    CLOUDY    53  48  83 N9        29.67R
$$

WIZ022-050-052-251400-
EAST CENTRAL WISCONSIN

CITY           SKY/WX    TMP DP  RH WIND       PRES   REMARKS
EPHRAIM        FAIR      51  49  92 N8        29.67S
WASHINGTON ISL FAIR      47  45  92 N8        29.68S
STURGEON BAY   SUNNY     55  50  83 N7        29.68R
MANITOWOC      MOSUNNY   55  50  83 N13       29.65S
SHEBOYGAN      PTSUNNY   54  51  90 N10       29.64S
$$

LMZ563-521-522-541>543-251400-
LAKESHORE

STATION/POSITION TIME  TEMP    WIND        PRES    VSBY  WAVE
                       AIR SEA DIR/SP/G                  HT/PER
                 (UTC) (F)     (DEG/KT/KT) (MB)    (MI)  (FT/S)
SHEBOYGAN LKSHOR 1300   50     350/ 15/ 17 1003.7R
KEWAUNEE LKSHORE 1248   54      10/ 12/ 18 1004.0R
NORTHPORT PIER   1240   47     340/ 10/ 13 1005.4R
N MID LAKE BUOY  1250   43 40  360/ 10/ 12 1005.6R         1/ 3
CHAMBERS ISLAND  1240   51     350/ 10/ 13 1004.7S
MENOMINEE LKSHOR 1248          360/  9/ 11   N/A
$$




USA.gov is the U.S. government's official web portal to all federal, state and local government web resources and services.